Wind_Speed
12 11 11 12 11 11 10 10 10 10 9 9 9 9 9 9 8 7 8 8 7 6 6 6 6 6 6 7 7 8 9 9 9 9 9 9 10 10 9 9 9 10 10
11 10 10 11 11 10 10 10 10 10 10 10 10 10 9 9 9 8 8 8 7 7 6 6 6 6 7 8 8 8 9 9 10 10 10 10 11 11 11 11 11 12 12
10 11 10 10 10 10 11 10 10 10 10 10 10 10 9 9 9 9 9 8 8 7 7 6 7 7 8 9 9 9 9 10 11 11 11 12 12 12 11 12 12 13 14
11 10 8 9 11 11 12 11 10 10 10 10 10 10 10 9 9 9 9 9 9 8 8 7 7 7 8 9 11 10 11 11 12 13 12 13 13 14 13 14 14 15 15
11 10 8 9 10 12 12 12 10 10 11 10 10 10 10 9 9 9 9 9 9 9 8 8 8 9 9 10 11 11 12 12 13 14 14 14 14 15 16 16 16 16 16
11 11 10 10 10 11 12 11 10 11 11 11 10 10 10 10 10 10 10 9 9 9 10 10 10 9 10 10 10 12 12 13 14 15 15 16 16 16 17 18 18 18 18
11 11 10 11 10 11 12 11 11 11 11 11 9 9 10 9 9 9 10 10 10 11 10 10 9 9 9 10 11 12 13 13 14 15 16 17 17 18 18 18 19 19 20
11 11 10 11 11 12 12 12 10 11 11 11 9 9 10 10 9 10 10 10 11 11 10 10 9 9 10 11 12 13 13 13 14 15 16 17 18 18 18 19 19 20 21
12 12 11 10 11 11 11 12 10 10 11 11 11 11 11 11 10 10 10 11 11 11 10 10 10 10 10 11 12 13 13 14 14 14 15 16 18 18 18 19 19 20 20
13 13 12 11 11 11 12 13 10 10 11 12 12 12 12 12 11 11 11 11 11 11 11 11 11 11 11 11 12 13 13 13 14 14 14 15 17 17 18 19 19 19 20
13 12 12 12 12 12 13 13 12 12 12 12 12 12 13 13 12 12 11 11 11 12 11 11 10 10 10 10 11 12 13 14 14 14 14 15 16 17 17 18 19 19 19
14 14 13 13 13 13 13 12 12 13 12 12 12 12 12 12 12 12 12 12 12 12 11 11 10 11 11 11 11 11 11 12 12 12 13 14 15 15 16 17 18 18 18
16 16 15 14 13 13 12 12 13 13 12 12 12 12 12 13 13 13 13 13 12 12 12 11 11 11 11 12 11 11 11 11 11 11 12 12 13 14 15 16 16 17 18
17 16 15 14 13 12 12 12 13 13 12 12 12 12 12 13 13 13 13 13 13 13 13 13 12 12 12 12 11 11 10 11 11 11 12 13 14 15 16 17 17 18 19
16 16 15 14 12 13 13 13 13 13 12 12 12 12 13 14 14 14 13 13 13 13 12 13 12 12 12 11 11 11 11 11 12 13 13 14 15 16 17 17 18 19 20
16 15 15 13 13 14 14 13 12 12 12 12 12 13 14 14 15 14 14 13 12 12 12 12 12 12 12 12 12 12 12 13 13 13 14 14 15 16 16 17 18 19 19
16 16 16 15 15 14 14 14 13 13 12 13 13 14 14 14 14 14 14 13 13 12 13 12 12 12 12 12 12 13 13 13 13 13 14 15 16 16 17 17 17 18 18
17 18 17 16 16 15 15 15 14 14 14 14 14 14 14 15 15 15 15 14 14 13 13 12 12 12 12 13 13 14 13 13 13 14 15 16 16 16 16 17 18 19 20
19 19 18 17 17 16 16 16 15 14 14 14 15 15 15 16 16 15 15 15 14 13 13 13 13 13 13 13 13 13 13 14 14 15 15 16 17 17 17 19 19 20 21
20 19 18 18 18 17 17 17 17 16 16 16 16 15 15 15 15 16 16 15 14 14 13 13 13 13 14 14 14 14 14 15 15 16 16 17 17 18 19 20 21 23 24
22 21 20 19 18 18 19 19 19 18 18 18 17 16 16 15 15 16 16 16 15 14 13 14 14 15 15 16 16 16 16 16 17 17 18 19 19 20 21 22 23 25 26
23 22 21 20 20 20 20 20 20 20 19 19 18 17 16 16 16 16 16 16 15 15 14 15 15 16 17 18 17 17 18 18 19 19 20 20 21 22 23 24 26 27 27
24 23 23 22 22 21 21 21 22 21 20 19 18 17 17 16 16 16 17 17 16 16 16 16 17 18 18 19 19 19 20 20 20 21 22 22 23 24 26 27 27 28 28
25 24 24 24 23 23 23 23 22 21 21 20 20 19 18 17 17 17 18 18 18 18 18 18 19 19 20 21 21 21 21 21 22 23 24 24 25 26 27 28 28 28 29
26 26 25 25 25 25 25 24 22 21 21 22 21 20 19 19 18 18 19 19 20 19 19 20 20 21 21 22 22 23 23 23 23 24 25 25 26 27 28 28 29 30 30
27 27 26 26 26 26 25 24 22 22 22 22 21 20 20 20 20 20 19 20 20 20 20 20 21 22 23 23 23 23 23 24 25 25 26 27 27 28 29 30 31 31 32
Wind_Direction
11 14 17 16 17 20 22 18 13 9 8 10 8 5 1 358 354 354 349 344 331 320 306 294 281 265 257 257 255 254 248 244 246 248 252 255 258 261 261 264 266 268 270
6 10 14 12 10 12 11 11 8 4 1 1 360 1 358 357 354 349 345 344 334 328 314 294 286 274 260 260 256 253 250 246 247 249 254 257 257 259 260 264 265 266 266
1 356 358 360 359 360 360 0 0 357 356 352 351 351 349 349 347 341 332 330 323 314 308 301 296 281 268 264 261 255 253 252 251 251 255 257 258 260 263 265 265 267 268
344 346 351 352 351 352 352 351 354 355 354 351 347 347 347 341 339 335 330 325 318 312 301 296 293 286 279 269 260 259 260 261 260 258 257 258 259 260 262 266 267 269 269
337 340 341 345 345 347 344 343 347 352 352 348 343 341 345 343 340 338 334 328 327 321 312 302 296 285 279 272 265 261 264 265 263 261 261 261 261 262 264 266 268 269 270
330 333 332 333 336 341 342 341 347 348 348 347 342 339 342 343 343 338 335 332 329 324 316 305 299 286 274 272 267 267 268 267 264 262 261 262 263 266 267 266 267 268 267
325 328 326 326 333 335 343 346 350 350 346 344 340 335 337 338 339 339 337 335 330 324 315 308 301 290 284 276 273 273 272 270 268 265 262 264 265 267 270 270 269 269 268
322 325 329 327 330 334 336 338 339 345 348 348 347 342 338 335 336 338 337 336 333 328 323 315 310 295 289 285 276 276 276 274 273 270 266 264 267 270 272 272 272 271 270
321 325 327 329 327 328 330 330 331 339 343 346 350 348 345 338 335 336 336 334 332 328 325 321 314 306 294 292 285 281 280 276 273 271 272 269 269 273 275 275 275 272 273
319 322 323 320 321 326 331 332 329 337 339 341 343 342 343 340 337 335 333 332 330 328 325 320 314 309 301 296 292 287 284 282 279 276 273 273 274 277 278 277 279 280 275
312 316 320 316 318 325 330 331 332 333 335 336 338 337 337 336 336 334 329 327 325 326 325 324 320 314 309 303 299 296 289 284 283 282 279 276 277 278 280 281 281 280 279
313 320 317 316 319 322 324 324 324 325 328 330 330 331 331 331 331 331 328 325 323 321 321 322 320 317 316 314 310 303 297 290 286 284 282 279 280 280 280 282 282 281 281
312 313 313 310 313 317 318 320 324 322 322 324 325 327 328 328 328 326 326 327 327 324 323 324 319 316 316 315 314 312 302 298 293 291 289 286 285 284 285 285 285 284 283
305 306 307 306 307 311 312 315 320 320 321 323 325 328 329 329 328 328 327 326 323 320 320 321 320 316 314 315 314 314 308 302 299 296 293 291 288 286 287 287 286 286 286
301 305 303 300 304 309 310 311 315 317 318 321 323 327 328 328 328 328 327 326 324 321 318 318 318 315 313 313 313 310 308 305 299 297 293 292 290 288 287 287 286 288 289
294 303 306 304 306 307 309 310 314 317 316 320 323 325 323 324 325 325 324 325 324 322 321 320 315 312 311 309 310 307 306 305 303 300 298 295 293 293 292 291 290 291 292
294 299 301 301 301 302 305 311 312 315 315 315 317 320 321 323 324 323 322 320 318 318 319 317 312 310 308 307 307 307 306 306 307 305 302 301 299 297 296 295 296 296 296
292 294 295 294 295 299 302 306 310 314 315 313 313 317 320 321 322 320 318 318 315 314 316 315 312 312 312 311 307 305 304 306 307 306 303 302 301 299 298 298 298 299 300
288 289 288 288 292 296 300 304 306 311 313 312 310 312 315 317 319 319 317 317 316 313 312 314 312 310 311 314 312 308 308 307 306 306 306 308 305 303 303 300 299 302 303
285 284 283 286 289 293 297 301 306 308 309 309 308 308 310 314 317 318 317 316 315 315 313 313 312 311 311 311 312 310 309 308 307 306 306 307 306 305 303 303 303 303 304
280 282 282 284 286 288 292 297 301 303 305 305 305 303 305 308 312 313 317 319 313 312 312 311 310 311 310 310 311 309 308 307 307 305 304 305 305 305 305 306 306 305 305
276 278 280 282 285 287 290 294 296 298 300 301 303 300 299 303 306 308 311 314 310 308 309 309 309 311 311 310 309 307 307 306 306 305 305 305 306 306 307 307 307 306 306
273 275 277 280 285 287 289 292 294 296 297 296 298 297 297 300 302 303 305 308 308 307 309 309 309 309 310 309 307 307 307 306 306 306 306 306 307 307 307 307 307 307 306
271 272 275 278 282 285 287 291 292 293 294 294 292 293 293 297 298 298 300 303 305 305 306 307 307 308 309 308 307 307 306 306 306 306 307 307 307 307 308 307 307 307 307
269 272 274 276 279 282 285 287 289 290 291 291 287 289 291 292 295 295 297 299 299 300 302 304 306 308 309 309 307 305 304 305 306 307 307 306 307 308 308 308 307 307 308
268 271 274 276 278 280 283 284 285 287 288 287 287 289 292 294 294 294 295 297 297 298 300 302 303 305 307 307 308 307 306 306 308 308 307 307 307 308 309 309 309 309 309
Height
5929 5927 5925 5924 5922 5921 5919 5918 5916 5915 5913 5911 5910 5908 5906 5905 5904 5903 5902 5900 5899 5898 5897 5897 5896 5896 5896 5896 5897 5897 5897 5897 5898 5898 5899 5899 5899 5899 5898 5899 5899 5898 5898
5929 5927 5926 5924 5923 5921 5919 5918 5916 5915 5913 5911 5909 5908 5906 5904 5903 5901 5900 5899 5898 5897 5896 5895 5894 5894 5894 5895 5895 5895 5895 5895 5895 5896 5896 5897 5897 5896 5896 5896 5896 5896 5895
5929 5927 5926 5924 5923 5921 5920 5918 5916 5914 5912 5911 5909 5907 5905 5903 5902 5900 5899 5897 5896 5895 5894 5893 5893 5892 5892 5892 5893 5893 5893 5893 5893 5893 5894 5894 5894 5894 5894 5894 5894 5893 5892
5928 5926 5925 5924 5922 5920 5919 5916 5914 5913 5911 5909 5907 5905 5903 5902 5900 5899 5897 5896 5894 5892 5892 5891 5891 5890 5890 5890 5890 5890 5890 5890 5891 5890 5891 5891 5891 5891 5891 5891 5890 5890 5889
5926 5925 5923 5923 5921 5919 5918 5916 5913 5911 5909 5908 5906 5904 5902 5900 5899 5897 5896 5894 5892 5891 5890 5889 5888 5888 5887 5887 5887 5887 5887 5887 5887 5887 5887 5888 5888 5888 5888 5887 5887 5886 5885
5926 5924 5922 5921 5920 5918 5916 5913 5911 5909 5907 5906 5905 5903 5901 5899 5897 5896 5894 5892 5890 5889 5887 5886 5885 5884 5884 5884 5884 5884 5884 5884 5884 5883 5883 5884 5884 5884 5883 5883 5882 5882 5881
5924 5923 5921 5920 5919 5917 5914 5913 5910 5908 5906 5905 5903 5902 5900 5898 5896 5894 5893 5890 5888 5887 5885 5883 5882 5882 5881 5881 5881 5880 5880 5880 5880 5879 5879 5879 5879 5879 5879 5878 5877 5877 5876
5923 5921 5920 5919 5917 5915 5914 5912 5910 5907 5905 5903 5901 5900 5898 5896 5894 5893 5891 5889 5887 5885 5883 5881 5880 5879 5878 5878 5878 5877 5876 5876 5876 5875 5875 5875 5874 5874 5874 5873 5872 5871 5871
5920 5919 5918 5917 5915 5914 5912 5910 5907 5906 5904 5902 5900 5898 5896 5894 5893 5891 5889 5887 5885 5883 5882 5880 5878 5877 5876 5875 5874 5874 5873 5872 5871 5871 5870 5870 5869 5869 5868 5868 5867 5866 5865
5918 5917 5916 5914 5913 5912 5910 5907 5904 5904 5903 5901 5899 5897 5895 5893 5891 5889 5887 5885 5883 5881 5879 5877 5876 5875 5873 5872 5871 5870 5869 5868 5867 5867 5866 5865 5865 5864 5863 5863 5862 5860 5860
5915 5914 5913 5912 5910 5908 5907 5906 5904 5902 5901 5899 5897 5895 5893 5891 5889 5887 5885 5883 5880 5879 5877 5875 5873 5872 5870 5869 5868 5866 5866 5864 5863 5863 5862 5861 5860 5859 5858 5857 5856 5855 5854
5911 5911 5911 5909 5908 5907 5906 5904 5902 5901 5899 5897 5895 5893 5891 5889 5886 5884 5882 5880 5878 5876 5874 5873 5871 5869 5868 5866 5865 5863 5862 5861 5859 5858 5858 5856 5855 5854 5853 5852 5851 5850 5849
5909 5908 5908 5907 5906 5904 5903 5902 5901 5899 5897 5895 5893 5891 5889 5886 5884 5881 5879 5877 5875 5873 5871 5870 5868 5867 5865 5864 5862 5860 5859 5858 5856 5855 5854 5853 5851 5850 5849 5848 5846 5845 5844
5907 5906 5905 5904 5904 5902 5901 5899 5898 5897 5894 5892 5890 5888 5885 5883 5881 5878 5876 5874 5872 5870 5869 5867 5866 5864 5863 5861 5859 5858 5856 5855 5853 5852 5851 5849 5848 5846 5845 5843 5842 5840 5839
5904 5903 5902 5901 5900 5899 5898 5897 5895 5894 5891 5889 5887 5885 5883 5881 5878 5876 5874 5872 5869 5867 5866 5864 5863 5861 5860 5858 5857 5855 5854 5852 5850 5849 5847 5845 5843 5842 5840 5839 5837 5836 5834
5900 5899 5899 5897 5897 5896 5895 5894 5892 5890 5888 5886 5884 5882 5880 5878 5875 5873 5871 5869 5867 5865 5863 5861 5860 5858 5857 5856 5854 5852 5851 5849 5847 5845 5843 5841 5840 5838 5836 5834 5833 5831 5829
5896 5896 5895 5895 5894 5893 5892 5891 5889 5887 5885 5883 5882 5880 5877 5875 5873 5870 5868 5866 5864 5862 5861 5859 5857 5855 5854 5853 5851 5849 5847 5845 5844 5842 5840 5838 5836 5834 5832 5830 5828 5826 5823
5893 5893 5892 5891 5891 5890 5889 5887 5885 5883 5882 5880 5878 5876 5874 5872 5870 5868 5865 5863 5861 5860 5858 5856 5854 5853 5851 5850 5848 5846 5844 5842 5840 5838 5836 5834 5832 5829 5827 5825 5823 5820 5818
5889 5889 5888 5888 5887 5886 5885 5883 5881 5880 5878 5876 5875 5873 5871 5869 5867 5864 5862 5860 5858 5856 5855 5853 5852 5850 5848 5846 5844 5843 5841 5838 5836 5834 5832 5829 5827 5825 5822 5820 5818 5815 5812
5885 5885 5884 5884 5883 5882 5881 5879 5877 5876 5875 5873 5871 5869 5868 5866 5864 5861 5859 5857 5855 5853 5852 5850 5849 5847 5845 5843 5841 5839 5837 5835 5832 5830 5828 5825 5822 5820 5817 5815 5812 5809 5806
5880 5880 5880 5879 5878 5878 5876 5875 5873 5872 5870 5868 5866 5865 5863 5862 5860 5858 5855 5853 5851 5850 5848 5847 5845 5843 5842 5840 5837 5835 5833 5831 5828 5826 5823 5821 5818 5815 5812 5809 5806 5803 5799
5875 5875 5875 5874 5874 5873 5871 5870 5868 5866 5864 5863 5862 5860 5859 5857 5856 5854 5852 5850 5848 5846 5845 5843 5841 5840 5838 5835 5833 5831 5829 5826 5823 5821 5818 5815 5812 5809 5806 5803 5800 5796 5793
5869 5869 5869 5869 5868 5867 5866 5865 5863 5861 5859 5858 5856 5856 5854 5853 5851 5850 5848 5846 5844 5842 5841 5839 5837 5835 5833 5831 5828 5826 5823 5821 5818 5815 5813 5810 5806 5803 5800 5796 5793 5789 5785
5863 5863 5863 5863 5862 5862 5860 5859 5858 5856 5854 5853 5851 5850 5850 5848 5847 5845 5844 5842 5840 5838 5837 5835 5833 5831 5828 5826 5823 5821 5818 5815 5812 5809 5806 5803 5800 5797 5793 5789 5786 5782 5778
5856 5856 5857 5857 5856 5855 5854 5853 5852 5851 5849 5847 5846 5845 5844 5843 5842 5840 5839 5837 5835 5834 5832 5830 5828 5826 5823 5820 5818 5815 5812 5809 5806 5803 5800 5797 5793 5790 5786 5783 5779 5775 5771
5849 5850 5850 5850 5850 5849 5848 5847 5846 5845 5844 5842 5841 5840 5839 5838 5836 5835 5833 5832 5830 5829 5827 5825 5823 5820 5817 5814 5811 5809 5806 5802 5799 5796 5793 5790 5786 5783 5779 5775 5771 5767 5763